Вернуться в каталог

STARLINK-32365

АктивенСвязьVLEO
NORAD 61625·PAYLOAD·🇺🇸 United States

Запущен Oct 23, 2024 с Cape Canaveral Space Force Station

Loading…

Ближайшие Пролёты (ближайшие 24 часа)

TLE

СвежийSource: CelesTrak SupGP

Эпоха: Sep 14, 2026, 21:08 UTC

1 61625C 24191E   26257.88104167 -.00037546  00000+0 -13597-2 0  2574
2 61625  43.0008 165.8287 0001298 268.2945  82.0424 15.27602066    16

Отслеживайте STARLINK-32365 в реальном времени с AllMySat

Download on the App Store